EW7119 Weather Reports


time (UTC)temp
F
wind
direction
speed
knots
gust
knots
rain 1hr
in
rain 24hr
in
rain mn
in
humidity
%
barometer
mb
20260505034559 41 132 1.7 3.5 0.00 0.00 0.00 70 1000.0
20260505033109 39 84 1.7 5.2 0.00 0.00 0.00 78 999.7
20260505031617 39 49 0.9 5.2 0.00 0.00 0.00 81 999.5
20260505030113 39 111 0.0 2.6 0.00 0.00 0.00 81 999.6
20260505024607 40 111 0.0 0.9 0.00 0.00 0.00 77 999.3
20260505023109 40 111 0.0 2.6 0.00 0.00 0.00 74 998.9
20260505021611 39 5 0.0 4.3 0.00 0.00 0.00 78 998.9
20260505020125 39 89 2.6 7.8 0.00 0.00 0.00 81 998.8
20260505014546 39 26 3.5 7.8 0.00 0.00 0.00 82 999.0
20260505013050 39 38 1.7 8.7 0.00 0.00 0.00 81 998.3
20260505011602 41 16 2.6 10.4 0.00 0.00 0.00 74 998.5
20260505010059 45 318 5.2 12.2 0.00 0.00 0.00 59 998.3
20260505004504 50 274 2.6 8.7 0.00 0.00 0.00 44 997.6
20260505003006 50 277 1.7 7.0 0.00 0.00 0.00 45 997.7
20260505001609 50 253 1.7 3.5 0.00 0.00 0.00 47 997.6
20260505000117 50 191 0.9 2.6 0.00 0.00 0.00 50 997.8
20260504234608 50 254 0.9 4.3 0.00 0.00 0.00 48 997.9
20260504233118 50 150 1.7 7.8 0.00 0.00 0.00 50 997.9
20260504231620 50 188 1.7 7.0 0.00 0.00 0.00 47 998.1
20260504230017 51 262 0.9 3.5 0.00 0.00 0.00 43 997.7
20260504224519 52 325 2.6 5.2 0.00 0.00 0.00 39 997.6
20260504223035 52 321 1.7 4.3 0.00 0.00 0.00 41 997.8
20260504221515 52 321 4.3 7.8 0.00 0.00 0.00 41 997.9
20260504220050 51 306 3.5 7.0 0.00 0.00 0.00 45 997.9
20260504214555 51 294 2.6 13.0 0.00 0.00 0.00 48 997.8
20260504213107 55 310 1.7 7.0 0.00 0.00 0.00 31 997.6
20260504211554 58 246 4.3 8.7 0.00 0.00 0.00 29 997.5
20260504204610 56 189 1.7 9.6 0.00 0.00 0.00 38 997.9
20260504203122 55 265 2.6 6.1 0.00 0.00 0.00 38 998.4
20260504201600 56 267 2.6 10.4 0.00 0.00 0.00 36 998.5
20260504200126 56 309 3.5 9.6 0.00 0.00 0.00 38 998.6
20260504194618 54 247 3.5 7.8 0.00 0.00 0.00 34 998.6
20260504193010 55 360 2.6 7.8 0.00 0.00 0.00 30 999.0
20260504191628 53 322 0.0 7.0 0.00 0.00 0.00 38 999.4
20260504190018 51 281 1.7 12.2 0.00 0.00 0.00 38 999.7
20260504184542 52 286 2.6 7.8 0.00 0.00 0.00 35 999.4
20260504183043 52 256 1.7 7.0 0.00 0.00 0.00 32 999.7
20260504181557 53 259 3.5 7.8 0.00 0.00 0.00 36 999.8
20260504180038 53 360 2.6 7.0 0.00 0.00 0.00 32 1000.0
20260504174503 54 265 1.7 5.2 0.00 0.00 0.00 35 1000.0
20260504173120 54 279 3.5 8.7 0.00 0.00 0.00 34 1000.5
20260504171619 54 281 2.6 10.4 0.00 0.00 0.00 35 1000.9
20260504140109 43 84 0.0 0.0 0.00 0.00 0.00 50 1002.5
20260504120118 39 142 0.0 0.0 0.00 0.00 0.00 53 1002.5
20260504100115 38 82 0.0 0.0 0.00 0.00 0.00 50 1002.8
20260504090118 38 80 1.7 2.6 0.00 0.00 0.00 51 1003.0
20260504081600 39 86 0.0 1.7 0.00 0.00 0.00 50 1003.6
20260504080105 38 72 0.9 2.6 0.00 0.00 0.00 50 1003.8
20260504044604 42 63 0.0 0.0 0.00 0.00 0.00 42 1004.8
20260504043108 43 46 0.0 0.0 0.00 0.00 0.00 42 1005.0
20260504041556 44 338 0.0 0.0 0.00 0.00 0.00 41 1005.0
20260504040116 44 338 0.0 0.0 0.00 0.00 0.00 39 1005.0